Location: Berlise
(49.6641°N, 4.1077°E)
Time: 03:19:03
(UTC+00:00)

Cosmos 1441 Rocket - Pass Details

Date: 27 January 2021
Orbit: 495 x 540 km, 81.1° (Epoch: 24 February)

Event Time Altitude Azimuth Distance (km) Brightness Sun altitude
Rises 06:03:03 0° 350° (N) 2,703 6.6 -12.9°
Reaches altitude 10° 06:05:15 10° 354° (N) 1,801 5.7 -12.5°
Maximum altitude 06:09:11 62° 76° (ENE) 604 3.8 -11.9°
Drops below altitude 10° 06:13:02 10° 157° (SSE) 1,763 6.4 -11.3°
Sets 06:15:10 0° 161° (SSE) 2,639 7.3 -11.0°
